AO-07 1 07530U 74089B 25286.57513476 -.00000038 00000-0 56353-4 0 9992 2 07530 101.9987 292.2014 0011931 241.5114 214.7076 12.53692400329615 UO-11 1 14781U 84021B 25286.62156766 .00002091 00000-0 22341-3 0 9995 2 14781 97.7713 250.6283 0006083 283.7803 76.2738 14.89832595220406 AO-27 1 22825U 93061C 25286.58103418 .00000162 00000-0 78720-4 0 9998 2 22825 98.7230 348.6811 0009509 102.8305 257.3941 14.30844219671734 FO-29 1 24278U 96046B 25286.59067421 -.00000021 00000-0 14680-4 0 9992 2 24278 98.5531 163.7821 0350295 16.2117 344.9900 13.53256628439811 NOAA-15 1 25338U 98030A 25286.60092827 .00000205 00000-0 10175-3 0 9992 2 25338 98.5289 308.6657 0010093 356.9340 3.1778 14.27034678426125 GO-32 1 25397U 98043D 25286.50580095 .00000141 00000-0 81145-4 0 9994 2 25397 98.9863 268.3427 0001200 156.8226 203.3006 14.24351562416217 ISS 1 25544U 98067A 25286.49377713 .00012973 00000-0 23569-3 0 9994 2 25544 51.6333 80.7348 0000790 262.0329 98.0571 15.49903869533514 NO-44 1 26931U 01043C 25286.66384124 .00000195 00000-0 10403-3 0 9992 2 26931 67.0501 161.8320 0007080 273.5365 86.4927 14.31804257255158 SO-50 1 27607U 02058C 25286.41995080 .00002258 00000-0 29057-3 0 9999 2 27607 64.5528 171.9799 0068262 307.9171 51.5776 14.82075350227871 CO-55 1 27844U 03031E 25286.59006314 .00000467 00000-0 22205-3 0 9994 2 27844 98.6788 293.2623 0009643 175.0848 185.0427 14.24104007156579 CO-57 1 27848U 03031J 25286.59788450 .00000385 00000-0 18876-3 0 9994 2 27848 98.6817 293.1793 0009178 192.9297 167.1647 14.23423283156295 RS-22 1 27939U 03042A 25286.58765439 .00001858 00000-0 29938-3 0 9995 2 27939 98.3379 99.2002 0010891 336.1880 93.0447 14.72711379179243 CO-58 1 28895U 05043F 25286.40752244 .00003008 00000-0 49213-3 0 9998 2 28895 98.2678 72.4994 0013319 268.1192 91.8488 14.71524310 65440 CO-65 1 32785U 08021C 25286.59413784 .00008765 00000-0 60553-3 0 9998 2 32785 97.8020 258.9035 0010944 136.0371 224.1728 15.05945365948037 CO-66 1 32791U 08021J 25286.55611976 .00021908 00000-0 94854-3 0 9999 2 32791 97.7413 269.7761 0006515 92.4811 267.7171 15.22414827949633 RS-30 1 32953U 08025A 25286.59301640 .00000017 00000-0 53192-4 0 9990 2 32953 82.5028 148.8348 0019635 128.0723 232.2132 12.43169339789057 NOAA-19 1 33591U 09005A 25286.63628742 .00000070 00000-0 61459-4 0 9992 2 33591 98.9843 351.9713 0013847 12.1071 348.0431 14.13417587859655 SRMSAT 1 37841U 11058D 25286.57374596 .00000474 00000-0 11350-3 0 9995 2 37841 19.9711 112.0799 0011772 10.9777 35.1961 14.11479987722930 ZACUBE-1 1 39417U 13066B 25286.56512891 .00010181 00000-0 84918-3 0 9994 2 39417 97.7954 243.0978 0042447 354.5715 5.5041 14.98075892643765 Delfi-N3xt 1 39428U 13066N 25286.48243062 .00013064 00000-0 12652-2 0 9996 2 39428 97.8284 202.8190 0079951 306.5563 52.8314 14.90447238637817 GOMX-1 1 39430U 13066Q 25286.52711625 .00003298 00000-0 50965-3 0 9997 2 39430 97.6674 137.4161 0131851 148.5544 212.3631 14.68201676633701 LO-74 1 39440U 13066AA 25286.62793035 .00005859 00000-0 57626-3 0 9990 2 39440 97.8602 230.4554 0062201 122.7650 237.9582 14.91033458640218 AO-73 1 39444U 13066AE 25286.56039105 .00013965 00000-0 98501-3 0 9992 2 39444 97.7984 249.1961 0038558 324.4058 35.4597 15.04479114642514 DTUSAT-2 1 40030U 14033W 25286.60627365 .00012137 00000-0 74407-3 0 9995 2 40030 98.0709 264.7726 0008929 10.2201 349.9207 15.10284787615403 EO-80 1 40032U 14033Y 25286.48721549 .00012230 00000-0 74837-3 0 9993 2 40032 98.0586 264.1267 0006311 304.5744 55.4888 15.10368173615367 LILACSAT-2 1 40908U 15049K 25286.63811712 .00018650 00000-0 43427-3 0 9995 2 40908 97.4999 310.2541 0010387 72.6882 287.5501 15.42277540557639 IO-86 1 40931U 15052B 25151.18580175 .00001241 00000-0 78118-4 0 9996 2 40931 6.0006 24.0987 0012733 338.8432 21.1169 14.78805930523159 Horyu-4 1 41340U 16012D 25286.55970445 .00047759 00000-0 10025-2 0 9996 2 41340 30.9967 1.0629 0003308 301.8283 58.2042 15.44100716532229 Lapan A3 1 41603U 16040E 25286.63776233 .00005032 00000-0 17088-3 0 9992 2 41603 97.1434 286.4088 0011043 168.2181 191.9321 15.30866035517068 CAS-2T 1 41847U 16066G 25286.47863226 .00002917 00000-0 41895-3 0 9993 2 41847 98.4093 359.8067 0345266 157.3310 204.3557 14.43877699469185 CAS-4B 1 42759U 17034B 25286.23409667 .02580419 89150-5 11599-2 0 9996 2 42759 42.9904 278.1312 0010163 120.7569 239.4319 16.21055369462430 CAS-4A 1 42761U 17034D 25281.34159269 .04203186 90411-5 12507-2 0 9993 2 42761 42.9927 303.5081 0008135 81.2710 278.9099 16.26032227461692 TechnoSat 1 42829U 17042E 25286.61311937 .00006515 00000-0 49080-3 0 9994 2 42829 97.4000 89.4522 0018118 215.0269 144.9767 15.02681116449647 AO-91 1 43017U 17073E 25286.12608094 .00015293 00000-0 74052-3 0 9997 2 43017 97.5017 153.7615 0167551 98.0329 263.9948 15.07043496428105 S-Net D 1 43186U 18014G 25286.60244227 .00008818 00000-0 49862-3 0 9993 2 43186 97.5478 188.2263 0009866 140.5071 219.6881 15.13273077421425 S-Net B 1 43187U 18014H 25286.27893291 .00010201 00000-0 57651-3 0 9992 2 43187 97.5480 187.8835 0010578 138.3470 221.8569 15.13244538421371 S-Net A 1 43188U 18014J 25286.66850649 .00008605 00000-0 48652-3 0 9992 2 43188 97.5492 188.4369 0010561 137.4323 222.7728 15.13279428421433 S-Net C 1 43189U 18014K 25286.28167584 .00010193 00000-0 57587-3 0 9992 2 43189 97.5504 188.0885 0012220 130.1787 230.0516 15.13237859419925 Ten-Koh 1 43677U 18084G 25286.60200344 .00003437 00000-0 27239-3 0 9993 2 43677 98.0735 103.8520 0008631 195.7408 164.3547 15.01251972379149 PO-101 1 43678U 18084H 25286.58373652 .00004098 00000-0 34347-3 0 9996 2 43678 98.1073 107.6242 0007327 213.2468 146.8294 14.98982915379251 QO-100 1 43700U 18090A 25286.13586503 .00000133 00000-0 00000-0 0 9993 2 43700 0.0244 106.6476 0002200 139.4091 210.6243 1.00273669 25208 MinXSS-2 1 43758U 18099A 25286.61754902 .00030946 00000-0 10448-2 0 9992 2 43758 97.4878 353.3265 0011508 75.3628 284.8888 15.30561948376212 AO-95 1 43770U 18099N 25286.13078909 .00017326 00000-0 80797-3 0 9991 2 43770 97.4769 342.9240 0011295 131.0119 229.2095 15.19873867375608 SNUSat 2 1 43782U 18099AA 25286.58706586 .00013119 00000-0 67043-3 0 9997 2 43782 97.4448 339.0608 0012986 79.6159 280.6537 15.16727726375587 SnugLite 1 43784U 18099AC 25286.59346222 .00016341 00000-0 75502-3 0 9996 2 43784 97.4262 338.9224 0004794 84.4759 275.7023 15.20253039375764 ITASat 1 1 43786U 18099AE 25286.41164207 .00012202 00000-0 65919-3 0 9993 2 43786 97.4424 338.0077 0015190 127.8119 232.4491 15.14751875375490 EAGLET 1 1 43790U 18099AJ 25286.56139334 .00007794 00000-0 47908-3 0 9995 2 43790 97.4616 337.6516 0013115 114.5928 245.6670 15.10254565375076 ESEO 1 43792U 18099AL 25286.57642353 .00002600 00000-0 19643-3 0 9994 2 43792 97.4346 329.1989 0014905 94.0770 266.2160 15.03141335374741 JO-97 1 43803U 18099AX 25286.60016071 .00020361 00000-0 83564-3 0 9990 2 43803 97.4511 344.7008 0008070 70.6179 289.5930 15.24227302375940 Suomi 100 1 43804U 18099AY 25286.57331710 .00017607 00000-0 78990-3 0 9993 2 43804 97.4576 343.5681 0012895 72.2490 288.0151 15.21185587375832 ISAT 1 43879U 18111D 25286.52449439 .00042145 00000-0 11907-2 0 9992 2 43879 97.5868 204.1006 0010916 105.2288 255.0163 15.36173501372985 UWE-4 1 43880U 18111E 25286.55843676 .00029841 00000-0 10081-2 0 9998 2 43880 97.5814 201.6142 0013266 118.5188 241.7389 15.30529055372860 Sparrow 1 43881U 18111F 25286.32588931 .00051975 00000-0 13886-2 0 9993 2 43881 97.6042 207.3164 0008373 128.4299 231.7698 15.37885249373060 Prox-1 1 44339U 19036A 25286.39514918 .00018853 00000-0 22328-2 0 9999 2 44339 23.9974 313.7350 0007329 75.5497 284.5814 14.82960923336692 Taurus 1 1 44530U 19059C 25286.60330302 .00010883 00000-0 19164-2 0 9993 2 44530 98.6208 72.2237 0008748 4.9019 355.2268 14.67727123322417 Duchifat 3 1 44854U 19089C 25286.31345703 .00183166 00000-0 17909-2 0 9994 2 44854 36.9355 267.9294 0008651 219.3820 140.6314 15.64600384322577 TO-108 1 44881U 19093C 25286.63668422 .00001473 00000-0 17486-3 0 9991 2 44881 97.7820 359.6004 0013887 171.9561 188.1880 14.85893679314792 FloripaSat 1 1 44885U 19093G 25286.63329220 .00009798 00000-0 78960-3 0 9997 2 44885 97.8086 14.5822 0010711 154.9122 205.2624 15.00078725315639 RS-44 1 44909U 19096E 25286.34658181 .00000010 00000-0 -17013-5 0 9999 2 44909 82.5203 143.7448 0217637 1.7956 358.3878 12.79744492270777 UPMSat 2 1 46276U 20061E 25284.11510829 .12115553 24945-5 13983-3 0 9991 2 46276 97.2106 5.1352 0012001 257.8540 102.1421 16.49625583285008 SALSAT 1 46495U 20068K 25286.58170616 .00012610 00000-0 50956-3 0 9999 2 46495 97.8751 270.6909 0013130 85.8551 274.4186 15.24823499277713 CSS (TIANHE-1) 1 48274U 21035A 25286.65831602 .00047162 00000-0 53180-3 0 9990 2 48274 41.4664 21.8271 0003189 239.2264 120.8261 15.61694077254683 TUBIN 1 48900U 21059X 25286.16738369 .00137706 00000-0 85464-3 0 9998 2 48900 97.6748 106.8798 0002004 132.2420 227.9015 15.76612366239703 LEDSAT 1 49069U 21073D 25286.23754732 .03113040 24107-5 14793-2 0 9994 2 49069 97.3545 15.5168 0009728 282.9196 77.1007 16.21364739231204 CUTE 1 49263U 21088D 25286.06854948 .00047688 00000-0 74841-3 0 9990 2 49263 97.4393 6.4262 0006841 128.9109 231.2755 15.53510397223865 TeikyoSat 4 1 49396U 21102B 25286.36927197 .00003606 00000-0 23635-3 0 9991 2 49396 97.3991 320.2221 0013905 65.7744 294.4936 15.08235131215503 Z-Sat 1 49399U 21102E 25286.58109491 .00007184 00000-0 38004-3 0 9998 2 49399 97.3677 324.3372 0018369 32.1424 328.0925 15.15603380216057 KOSEN 1 1 49402U 21102H 25286.58201307 .00011729 00000-0 51145-3 0 9993 2 49402 97.3569 328.7517 0015063 4.5335 355.6035 15.22221574216443 HO-113 1 50466U 21131B 25286.65916433 .00000845 00000-0 27676-3 0 9997 2 50466 98.5073 15.3838 0005231 114.5858 245.5877 14.40987327199604 SNUGLITE 2 1 52899U 22065F 25286.64513324 .00002001 00000-0 39436-3 0 9990 2 52899 98.1872 67.5484 0008657 80.2595 279.9585 14.63579657174920 UmKA 1 (RS40S) 1 57172U 23091G 25286.60789581 .00009372 00000-0 47677-3 0 9999 2 57172 97.5432 341.3538 0012347 256.1003 103.8857 15.16988397126575 CubeBel-2 (EU11S) 1 57175U 23091K 25286.60228027 .00015548 00000-0 68270-3 0 9999 2 57175 97.5429 343.3406 0009986 260.4181 99.5926 15.21982934126700 ENSO 1 58470U 23185J 25286.61753877 .00308692 00000-0 13998-2 0 9990 2 58470 97.3542 7.3825 0004877 288.5025 71.5714 15.83101751104740 SONATE-2 1 59112U 24043Q 25286.53298325 .00032948 00000-0 79954-3 0 9994 2 59112 97.5290 60.7540 0009955 26.3589 333.8162 15.40920885 89695 MO-122 1 60209U 24125G 25286.50814310 .00035921 00000-0 84952-3 0 9997 2 60209 97.2620 137.0240 0017972 47.4618 312.8143 15.41560123 71310 GRBBeta 1 60237U 24128C 25286.59563430 .00006292 00000-0 45305-3 0 9992 2 60237 61.9926 359.8182 0056977 83.9268 276.8312 15.03921931 69142 Curium One 1 60242U 24128H 25286.45901715 .00012537 00000-0 80769-3 0 9997 2 60242 61.9821 356.4833 0056637 80.3352 280.4132 15.07363072 69192 ROBUSTA-3A 1 60243U 24128J 25286.50452541 .00011702 00000-0 76726-3 0 9993 2 60243 61.9895 357.6065 0056501 77.8759 282.8657 15.06779982 69183 CatSat 1 60246U 24125J 25286.15706231 .00041332 00000-0 11755-2 0 9994 2 60246 97.2436 134.3975 0038238 8.6154 351.5738 15.35281034 69213 HYPERVIEW-1G (RS66S) 1 61772U 24199AP 25286.62918850 .00041429 00000-0 96804-3 0 9990 2 61772 97.3300 155.5591 0014059 97.0132 263.2715 15.41959526 96333 AO-123 1 61781U 24199AY 25286.61178453 .00010837 00000-0 37026-3 0 9996 2 61781 97.3330 152.7691 0016997 107.8349 252.4748 15.30328107 96147 ZIMSAT 2 1 61783U 24199BA 25286.64521344 .00093135 00000-0 14241-2 0 9997 2 61783 97.3234 157.5795 0012904 90.3422 269.9310 15.53978656 99621 HADES-R (SO-124) 1 62690U 25009CK 25286.31703711 .00112046 00000-0 25972-2 0 9996 2 62690 97.3971 7.4483 0001523 333.2829 26.8340 15.41988754 41424 HYDRA-T 1 62692U 25009CM 25286.59527942 .00100536 00000-0 22823-2 0 9991 2 62692 97.3971 7.8391 0001594 314.8434 45.2684 15.42662859 41470 JINJUSat 1B 1 63210U 25052A 25286.62869394 .00019052 00000-0 78758-3 0 9991 2 63210 97.4225 179.2735 0001930 206.2516 153.8624 15.24026058 32425 NUSHSAT 1 1 63211U 25052B 25286.65718220 .00023129 00000-0 93668-3 0 9993 2 63211 97.4211 179.3583 0001677 217.1330 142.9792 15.24677596 32431 TEVEL2-4 1 63213U 25052D 25286.63548443 .00020240 00000-0 83233-3 0 9999 2 63213 97.4130 179.0056 0000478 262.0496 98.0687 15.24190366 32423 TEVEL2-5 1 63214U 25052E 25286.63859870 .00021220 00000-0 87363-3 0 9996 2 63214 97.4129 179.0025 0000497 265.6577 94.4603 15.24142323 32426 TEVEL2-6 1 63215U 25052F 25286.64407324 .00021933 00000-0 90385-3 0 9990 2 63215 97.4130 178.9984 0000521 269.3482 90.7696 15.24101730 32423 TEVEL2-1 1 63217U 25052H 25286.60933568 .00020952 00000-0 87083-3 0 9993 2 63217 97.4105 178.8229 0001095 316.9913 43.1238 15.23822652 32418 TEVEL2-3 1 63218U 25052J 25286.60919891 .00021070 00000-0 87540-3 0 9997 2 63218 97.4106 178.8258 0001162 318.1206 41.9942 15.23835477 32413 TEVEL2-2 1 63219U 25052K 25286.61009862 .00020784 00000-0 86393-3 0 9993 2 63219 97.4105 178.8236 0001129 317.9314 42.1836 15.23820859 32412 TEVEL2-9 1 63237U 25052AD 25286.25415333 .00024578 00000-0 10621-2 0 9992 2 63237 97.4166 178.2569 0005579 309.1285 50.9455 15.22456084 32334 TEVEL2-7 1 63238U 25052AE 25286.65733181 .00020338 00000-0 88235-3 0 9998 2 63238 97.4170 178.6399 0005632 307.3712 52.7011 15.22361357 32392 TEVEL2-8 1 63239U 25052AF 25286.20176662 .00023200 00000-0 10071-2 0 9998 2 63239 97.4169 178.1773 0005651 309.3046 50.7689 15.22314629 32327 HYDRA-W 1 63490U 25052BL 25285.93662568 .00070828 00000-0 22684-2 0 9992 2 63490 97.4105 179.2897 0006352 303.2555 56.8077 15.32094284 32389 HADES-ICM (SO-125) 1 63492U 25052BN 25285.80884399 .00063796 00000-0 21138-2 0 9997 2 63492 97.4113 179.0200 0007028 308.1170 51.9437 15.31028346 32352